Date String (YYYY-MM-DD hh:mm:ss) UTC,Instrument flags,Ambient pressure (hPa),Sample flow (lpm),Bypass flow (lpm),Sample temperature (°C),Ambient temperature (°C),ASC tube jacket temperature (°C),LED temperature (°C),Box temperature (°C),Sample RH (%),Span deviation,Mass concentration (μg/m³),Mass concentration (μg/m³),Mass concentration (μg/m³)
DateTimeUTC,F1_M11,P_M11,Q1_M11,Q2_M11,T1_M11,T2_M11,T3_M11,T4_M11,T5_M11,U1_M11,ZSPAN_M11,X0_M11,X2_M11,X1_M11
2022-11-03 16:00:00,,0821.4,5.01,0.00,25.0,23.6,00.0,33.8,26.9,13.2,0000.0,0011.00,0003.82,0002.75
2022-11-03 16:01:00,,0821.4,5.01,0.00,25.0,23.6,00.0,33.8,26.9,13.2,0000.0,0010.56,0003.78,0002.74
2022-11-03 16:02:00,,0821.4,5.00,0.00,25.0,23.6,00.0,33.8,26.9,13.2,0000.0,0010.53,0003.75,0002.73
2022-11-03 16:03:00,,0821.4,5.00,0.00,25.0,23.6,00.0,33.8,27.0,13.3,0000.0,0010.44,0003.72,0002.74
2022-11-03 16:04:00,,0821.4,5.00,0.00,25.0,23.6,00.0,33.8,27.0,13.2,0000.0,0009.72,0003.70,0002.75
2022-11-03 16:05:00,,0821.3,5.01,0.00,25.0,23.6,00.0,33.8,27.0,13.1,0000.0,0009.73,0003.69,0002.77
2022-11-03 16:06:00,,0821.3,5.01,0.00,25.1,23.6,00.0,33.8,27.0,13.1,0000.0,0010.49,0003.70,0002.77
2022-11-03 16:07:00,,0821.3,5.00,0.00,25.1,23.7,00.0,33.8,27.0,13.1,0000.0,0010.51,0003.68,0002.77
2022-11-03 16:08:00,,0821.2,5.00,0.00,25.1,23.7,00.0,33.8,27.0,13.0,0000.0,0010.89,0003.67,0002.75
2022-11-03 16:09:00,,0821.2,5.00,0.00,25.1,23.7,00.0,33.8,27.0,13.0,0000.0,0010.64,0003.67,0002.74
2022-11-03 16:10:00,,0821.3,5.00,0.00,25.1,23.6,00.0,33.8,27.0,13.0,0000.0,0010.43,0003.65,0002.74
2022-11-03 16:11:00,,0821.3,5.00,0.00,25.1,23.6,00.0,33.8,27.0,13.0,0000.0,0010.64,0003.62,0002.75
2022-11-03 16:12:00,,0821.3,5.01,0.00,25.1,23.6,00.0,33.8,27.0,13.0,0000.0,0010.91,0003.61,0002.75
2022-11-03 16:13:00,,0821.3,4.99,0.00,25.1,23.6,00.0,33.8,27.0,13.0,0000.0,0011.16,0003.61,0002.76
2022-11-03 16:14:00,,0821.2,5.01,0.00,25.1,23.6,00.0,33.8,27.0,13.1,0000.0,0011.19,0003.65,0002.76
2022-11-03 16:15:00,,0821.2,5.01,0.00,25.1,23.6,00.0,33.8,27.0,13.1,0000.0,0011.21,0003.67,0002.77
2022-11-03 16:16:00,,0821.2,5.00,0.00,25.1,23.6,00.0,33.8,27.0,13.0,0000.0,0011.25,0003.69,0002.78
2022-11-03 16:17:00,,0821.2,4.99,0.00,25.1,23.6,00.0,33.8,27.0,13.1,0000.0,0010.16,0003.67,0002.80
2022-11-03 16:18:00,,0821.2,5.01,0.00,25.1,23.6,00.0,33.8,27.0,13.1,0000.0,0010.82,0003.67,0002.81
2022-11-03 16:19:00,,0821.1,5.01,0.00,25.1,23.6,00.0,33.8,27.0,13.0,0000.0,0010.70,0003.65,0002.84
2022-11-03 16:20:00,,0821.1,5.00,0.00,25.1,23.6,00.0,33.8,27.0,13.1,0000.0,0010.53,0003.64,0002.86
2022-11-03 16:21:00,,0821.1,5.00,0.00,25.1,23.6,00.0,33.8,27.0,13.1,0000.0,0011.31,0003.67,0002.88
2022-11-03 16:22:00,,0821.1,5.01,0.00,25.1,23.6,00.0,33.8,27.0,13.1,0000.0,0011.94,0003.70,0002.90
2022-11-03 16:23:00,,0821.1,4.98,0.00,25.1,23.6,00.0,33.9,27.0,13.1,0000.0,0012.09,0003.69,0002.92
2022-11-03 16:24:00,,0821.1,5.01,0.00,25.0,23.6,00.0,33.9,27.0,13.1,0000.0,0012.45,0003.75,0002.95
2022-11-03 16:25:00,,0821.1,5.01,0.00,25.0,23.6,00.0,33.9,27.0,13.1,0000.0,0012.42,0003.81,0002.98
2022-11-03 16:26:00,,0821.1,5.00,0.00,25.0,23.6,00.0,33.9,26.9,13.2,0000.0,0012.54,0003.85,0003.01
2022-11-03 16:27:00,,0821.1,5.00,0.00,25.0,23.6,00.0,33.9,27.0,13.3,0000.0,0012.23,0003.85,0003.03
2022-11-03 16:28:00,,0821.1,4.98,0.00,25.0,23.6,00.0,33.9,27.0,13.3,0000.0,0012.50,0003.91,0003.04
2022-11-03 16:29:00,,0821.2,5.00,0.00,25.0,23.6,00.0,33.9,27.0,13.1,0000.0,0012.09,0004.01,0003.07
2022-11-03 16:30:00,,0821.1,5.01,0.00,25.0,23.6,00.0,33.9,26.9,13.1,0000.0,0011.86,0004.06,0003.09
2022-11-03 16:31:00,,0821.2,5.00,0.00,25.1,23.7,00.0,33.8,27.0,13.2,0000.0,0012.06,0004.08,0003.09
2022-11-03 16:32:00,,0821.3,4.99,0.00,25.1,23.7,00.0,33.8,27.0,13.1,0000.0,0011.92,0004.07,0003.09
2022-11-03 16:33:00,,0821.3,5.00,0.00,25.1,23.7,00.0,33.8,27.0,13.2,0000.0,0011.23,0004.07,0003.10
2022-11-03 16:34:00,,0821.3,5.01,0.00,25.1,23.7,00.0,33.8,27.0,13.2,0000.0,0010.51,0004.09,0003.11
2022-11-03 16:35:00,,0821.3,5.01,0.00,25.1,23.7,00.0,33.8,27.0,13.0,0000.0,0010.25,0004.08,0003.11
2022-11-03 16:36:00,,0821.2,4.98,0.00,25.1,23.7,00.0,33.8,27.1,13.0,0000.0,0010.20,0004.06,0003.10
2022-11-03 16:37:00,,0821.2,5.00,0.00,25.1,23.8,00.0,33.9,27.0,13.0,0000.0,0010.37,0004.06,0003.11
2022-11-03 16:38:00,,0821.1,5.00,0.00,25.1,23.8,00.0,33.9,27.0,13.0,0000.0,0010.20,0004.09,0003.12
2022-11-03 16:39:00,,0821.1,5.00,0.00,25.1,23.7,00.0,33.9,27.1,12.9,0000.0,0010.05,0004.08,0003.11
2022-11-03 16:40:00,,0821.0,5.01,0.00,25.1,23.8,00.0,33.9,27.1,12.9,0000.0,0011.66,0004.02,0003.10
2022-11-03 16:41:00,,0820.9,5.01,0.00,25.1,23.8,00.0,33.9,27.1,12.9,0000.0,0012.25,0004.02,0003.10
2022-11-03 16:42:00,,0820.9,5.01,0.00,25.1,23.8,00.0,33.9,27.1,13.0,0000.0,0011.95,0004.01,0003.11
2022-11-03 16:43:00,,0820.8,4.98,0.00,25.1,23.8,00.0,33.9,27.1,12.9,0000.0,0011.51,0004.02,0003.11
2022-11-03 16:44:00,,0820.7,5.00,0.00,25.1,23.9,00.0,33.9,27.1,12.9,0000.0,0011.75,0004.03,0003.12
2022-11-03 16:45:00,,0820.7,5.00,0.00,25.2,23.9,00.0,33.9,27.1,12.9,0000.0,0012.14,0004.05,0003.13
2022-11-03 16:46:00,,0820.6,5.00,0.00,25.2,23.9,00.0,33.9,27.1,12.8,0000.0,0012.14,0004.06,0003.13
2022-11-03 16:47:00,,0820.6,5.00,0.00,25.2,23.9,00.0,33.9,27.1,12.8,0000.0,0012.21,0004.04,0003.14
2022-11-03 16:48:00,,0820.5,5.00,0.00,25.2,23.9,00.0,33.9,27.1,12.8,0000.0,0012.39,0004.00,0003.14
2022-11-03 16:49:00,,0820.4,5.00,0.00,25.2,23.9,00.0,33.9,27.1,12.7,0000.0,0012.62,0003.95,0003.13
2022-11-03 16:50:00,,0820.3,5.00,0.00,25.2,23.9,00.0,33.9,27.1,12.6,0000.0,0012.97,0003.90,0003.12
2022-11-03 16:51:00,,0820.4,5.00,0.00,25.2,23.8,00.0,33.9,27.1,12.6,0000.0,0011.13,0003.87,0003.11
2022-11-03 16:52:00,,0820.3,5.00,0.00,25.2,23.8,00.0,34.0,27.1,12.6,0000.0,0010.43,0003.85,0003.10
2022-11-03 16:53:00,,0820.3,5.01,0.00,25.2,23.8,00.0,33.9,27.1,12.5,0000.0,0010.35,0003.82,0003.09
2022-11-03 16:54:00,,0820.3,5.01,0.00,25.2,23.9,00.0,34.0,27.2,12.5,0000.0,0010.63,0003.82,0003.09
2022-11-03 16:55:00,,0820.3,5.00,0.00,25.2,23.9,00.0,34.0,27.1,12.5,0000.0,0010.50,0003.79,0003.08
2022-11-03 16:56:00,,0820.2,5.00,0.00,25.2,23.9,00.0,34.0,27.2,12.4,0000.0,0010.02,0003.73,0003.06
2022-11-03 16:57:00,,0820.2,5.00,0.00,25.2,23.9,00.0,34.0,27.2,12.3,0000.0,0010.03,0003.70,0003.03
2022-11-03 16:58:00,,0820.2,5.00,0.00,25.2,23.9,00.0,34.0,27.2,12.4,0000.0,0010.23,0003.67,0003.01
2022-11-03 16:59:00,,0820.3,4.99,0.00,25.2,23.9,00.0,34.0,27.2,12.4,0000.0,0010.24,0003.66,0002.99
